STARLINK-3458, 51758

Orbit data source: Space-Track

STARLINK-3458, 51758 is a payload satellite owned by SpaceX/Seattle (US) in LEO that was launched on Mon, 21 Feb 2022 UTC via an FALCON 9 launch vehicle from the Air Force Eastern Test Range (AFETR). Payload-class satellites include a variety of spacecraft equipped with specific instruments for various scientific and technological missions. These include communications satellites like Starlink; space stations such as the ISS; scientific satellites like the Hubble; Earth observation satellites from companies like Planet Labs, Umbra, and HawkEye 360; GPS; miniature CubeSats for education and research; and military/defense satellites.

Loading next visibility...
Identifier
51758, 2022-016AW
Orbit
LEO
Country
Flag of USUS
Related business
Manufacturer
SpaceX/Seattle
Mission
Operational Commercial Communications
Bus & Motor
STARLINK, Unknown motor
Mass
297 kg wet, ~275 kg dry
Launch date (UTC)
2022-02-21 (4 years ago)
Launch vehicle
FALCON 9
Launch site
Air Force Eastern Test Range (AFETR)
Object type
Payload
Rocket body
Debris
Shape & HBR
Box + 1 Pan, 10.1 m
Radar Cross Section
13.562 m², Large (>1 m²)

Expand to show TLE details & history
Last TLE update: 2 days ago

TLE from 2 days ago
0 STARLINK-3458
1 51758U 22016AW  26171.39138906  .00000492  00000-0  48996-4 0  9998
2 51758  53.1584 207.9104 0000996  81.2282 278.8822 15.08830543240352
Epoch: 2026-06-20T09:23Z
TLE epoch observation values (Epoch: 2026-06-20T09:23:36.014Z)
Latitude
-0.00005°
Longitude
158.40362°
Altitude
540.557 km
Speed
7.593 km/s
True Right ascension
13h 51m 38s
True Declination
0° 00' 00"
Sunlit
Object was in full shadow at epoch
Visualization orbit readout
Latitude
Unknown
Longitude
Unknown
Altitude
Unknown
Speed
Unknown
Apparent Right ascension
Unknown
Apparent Declination
Unknown
Sunlit
N/A
Visualization observer readout
Local Sidereal Time
21:31:51
Azimuth
Unknown
Elevation
Unknown
Doppler factor
Unknown
Orbital elements
Apogee altitude
540.716 km
Perigee altitude
539.338 km
Semi-major axis
6,918.164 km
Eccentricity
0.0001
Inclination
53.1584°
RAAN
207.9104°
Arg. of periapsis
81.2282°
True anomaly
278.87092°
Mean anomaly
278.8822°
Eccentric anomaly
278.87656°
Mean motion
3.77187 °/min
Orbital period
95.44 mins
BSTAR
0.000048996
Loading maneuver chart data...
Computing Atmospheric mass density...
Loading historical data...
Loading historical data...
Loading historical data...
Loading historical data...
Loading historical data...
Loading historical data...
Loading historical data...

Documentation

Showing up to 5 results
|